Location: Recife
(8.0585°S, 34.8848°W)
Time: 10:16:28
(UTC-03:00)

Transit 2A Rocket - Pass Details

Date: 20 April 2026
Orbit: 587 x 895 km, 66.7° (Epoch: 14 May)

Event Time Altitude Azimuth Distance (km) Brightness Sun altitude
Rises 22:56:51 0° 215° (SW) 3,450 - -83.5°
Reaches altitude 10° 22:59:28 10° 222° (SW) 2,535 - -84.0°
Maximum altitude 23:04:55 38° 289° (WNW) 1,324 - -85.0°
Drops below altitude 10° 23:10:24 10° 356° (N) 2,547 - -85.8°
Sets 23:13:03 0° 3° (N) 3,467 - -86.0°
